• In Romania
  • List of Countries
  • For 7 days
  • Water Temperature
  • Satellite Maps
  • Weather Map
  • Weather Widgets
  • user-avatar
    Login

    Hourly Weather Mingachevir

    Today, 20 January, Saturday

    Time Temperature Precipitation Wind Pressure Humidity
    00:00 +8°C° 0 mm 2 mps 749 mmHg 57%
    01:00 +8°C° 0 mm 2 mps 750 mmHg 58%
    02:00 +8°C° 0 mm 2 mps 750 mmHg 59%
    03:00 +9°C° 0 mm 2 mps 750 mmHg 60%
    04:00 +8°C° 0.1 mm 2 mps 750 mmHg 62%
    05:00 +8°C° 0.1 mm 2 mps 751 mmHg 65%
    06:00 +8°C° 0.1 mm 2 mps 751 mmHg 67%
    07:00 +8°C° 0 mm 2 mps 752 mmHg 67%
    08:00 +9°C° 0 mm 1 mps 753 mmHg 66%
    09:00 +10°C° 0 mm 1 mps 753 mmHg 65%
    10:00 +11°C° 0 mm 1 mps 753 mmHg 62%
    11:00 +10°C° 0 mm 2 mps 754 mmHg 59%
    12:00 +12°C° 0 mm 2 mps 754 mmHg 57%
    13:00 +12°C° 0 mm 2 mps 754 mmHg 56%
    14:00 +12°C° 0 mm 2 mps 755 mmHg 56%
    15:00 +12°C° 0 mm 2 mps 755 mmHg 56%
    16:00 +12°C° 0 mm 2 mps 756 mmHg 62%
    17:00 +10°C° 0 mm 2 mps 756 mmHg 68%
    18:00 +9°C° 0 mm 2 mps 756 mmHg 74%
    19:00 +8°C° 0 mm 2 mps 757 mmHg 77%
    20:00 +8°C° 0 mm 2 mps 757 mmHg 80%
    21:00 +8°C° 0 mm 1 mps 757 mmHg 84%
    22:00 +8°C° 0 mm 1 mps 757 mmHg 84%
    23:00 +7°C° 0 mm 1 mps 757 mmHg 85%

    Tomorrow, 21 January, Sunday

    Time Temperature Precipitation Wind Pressure Humidity
    00:00 +7°C° 0 mm 1 mps 757 mmHg 85%
    01:00 +7°C° 0 mm 1 mps 757 mmHg 85%
    02:00 +6°C° 0 mm 1 mps 757 mmHg 84%
    03:00 +6°C° 0 mm 1 mps 757 mmHg 83%
    04:00 +6°C° 0 mm 1 mps 757 mmHg 82%
    05:00 +6°C° 0 mm 1 mps 757 mmHg 81%
    06:00 +6°C° 0 mm 1 mps 756 mmHg 79%
    07:00 +7°C° 0 mm 1 mps 756 mmHg 75%
    08:00 +8°C° 0 mm 1 mps 756 mmHg 71%
    09:00 +9°C° 0 mm 1 mps 756 mmHg 67%
    10:00 +10°C° 0 mm 1 mps 755 mmHg 60%
    11:00 +10°C° 0 mm 2 mps 754 mmHg 54%
    12:00 +13°C° 0 mm 2 mps 754 mmHg 47%
    13:00 +12°C° 0 mm 3 mps 754 mmHg 45%
    14:00 +13°C° 0 mm 3 mps 753 mmHg 42%
    15:00 +14°C° 0 mm 4 mps 753 mmHg 39%
    16:00 +13°C° 0 mm 4 mps 754 mmHg 42%
    17:00 +12°C° 0 mm 4 mps 754 mmHg 45%
    18:00 +11°C° 0 mm 4 mps 754 mmHg 47%
    19:00 +10°C° 0 mm 4 mps 755 mmHg 46%
    20:00 +10°C° 0 mm 4 mps 755 mmHg 44%
    21:00 +10°C° 0 mm 4 mps 755 mmHg 43%
    22:00 +10°C° 0 mm 4 mps 755 mmHg 42%
    23:00 +9°C° 0 mm 3 mps 755 mmHg 42%

    Day after tomorrow, 22 January, Monday

    Time Temperature Precipitation Wind Pressure Humidity
    00:00 +9°C° 0 mm 3 mps 755 mmHg 41%
    01:00 +9°C° 0 mm 3 mps 755 mmHg 41%
    02:00 +9°C° 0 mm 2 mps 755 mmHg 41%
    03:00 +8°C° 0 mm 2 mps 755 mmHg 40%
    04:00 +9°C° 0 mm 1 mps 754 mmHg 40%
    05:00 +9°C° 0 mm 1 mps 754 mmHg 41%
    06:00 +8°C° 0 mm 1 mps 754 mmHg 41%
    07:00 +9°C° 0 mm 1 mps 753 mmHg 40%
    08:00 +10°C° 0 mm 1 mps 753 mmHg 39%
    09:00 +11°C° 0 mm 1 mps 753 mmHg 38%
    10:00 +12°C° 0 mm 1 mps 752 mmHg 37%
    11:00 +13°C° 0 mm 1 mps 752 mmHg 35%
    12:00 +13°C° 0 mm 1 mps 751 mmHg 33%
    13:00 +14°C° 0 mm 1 mps 750 mmHg 34%
    14:00 +14°C° 0 mm 1 mps 750 mmHg 34%
    15:00 +14°C° 0 mm 1 mps 749 mmHg 35%
    16:00 +13°C° 0 mm 1 mps 749 mmHg 38%
    17:00 +12°C° 0 mm 1 mps 749 mmHg 42%
    18:00 +11°C° 0 mm 1 mps 749 mmHg 45%
    19:00 +10°C° 0 mm 1 mps 749 mmHg 45%
    20:00 +10°C° 0 mm 1 mps 749 mmHg 45%
    21:00 +8°C° 0 mm 2 mps 748 mmHg 45%
    22:00 +8°C° 0 mm 2 mps 748 mmHg 44%
    23:00 +8°C° 0 mm 2 mps 748 mmHg 43%

    23 January, Tuesday

    Time Temperature Precipitation Wind Pressure Humidity
    00:00 +8°C° 0 mm 2 mps 748 mmHg 43%
    01:00 +8°C° 0 mm 3 mps 748 mmHg 41%
    02:00 +7°C° 0 mm 3 mps 748 mmHg 40%
    03:00 +7°C° 0 mm 3 mps 747 mmHg 38%
    04:00 +7°C° 0 mm 3 mps 747 mmHg 36%
    05:00 +6°C° 0 mm 4 mps 747 mmHg 35%
    06:00 +6°C° 0 mm 4 mps 747 mmHg 33%
    07:00 +7°C° 0 mm 4 mps 747 mmHg 32%
    08:00 +8°C° 0 mm 4 mps 747 mmHg 30%
    09:00 +10°C° 0 mm 4 mps 747 mmHg 29%
    10:00 +12°C° 0 mm 4 mps 747 mmHg 26%
    11:00 +13°C° 0 mm 5 mps 747 mmHg 24%
    12:00 +15°C° 0 mm 5 mps 746 mmHg 21%
    13:00 +15°C° 0 mm 5 mps 746 mmHg 21%
    14:00 +15°C° 0 mm 5 mps 746 mmHg 22%
    15:00 +15°C° 0 mm 4 mps 746 mmHg 22%
    16:00 +14°C° 0 mm 4 mps 746 mmHg 25%
    17:00 +13°C° 0 mm 3 mps 747 mmHg 28%
    18:00 +11°C° 0 mm 3 mps 747 mmHg 32%
    19:00 +11°C° 0 mm 3 mps 747 mmHg 32%
    20:00 +11°C° 0 mm 3 mps 747 mmHg 33%
    21:00 +10°C° 0 mm 3 mps 747 mmHg 34%
    22:00 +10°C° 0 mm 3 mps 747 mmHg 35%
    23:00 +10°C° 0 mm 3 mps 747 mmHg 35%

    24 January, Wednesday

    Time Temperature Precipitation Wind Pressure Humidity
    00:00 +10°C° 0 mm 2 mps 747 mmHg 36%
    01:00 +10°C° 0 mm 2 mps 747 mmHg 37%
    02:00 +10°C° 0 mm 2 mps 747 mmHg 38%
    03:00 +9°C° 0 mm 2 mps 747 mmHg 40%
    04:00 +9°C° 0 mm 3 mps 747 mmHg 42%
    05:00 +9°C° 0 mm 3 mps 747 mmHg 44%
    06:00 +9°C° 0 mm 3 mps 748 mmHg 46%
    07:00 +8°C° 0 mm 4 mps 748 mmHg 46%
    08:00 +10°C° 0 mm 4 mps 749 mmHg 46%
    09:00 +9°C° 0 mm 5 mps 749 mmHg 47%
    10:00 +10°C° 0 mm 6 mps 749 mmHg 46%
    11:00 +11°C° 0 mm 6 mps 749 mmHg 45%
    12:00 +11°C° 0 mm 7 mps 750 mmHg 43%
    13:00 +11°C° 0 mm 7 mps 750 mmHg 43%
    14:00 +12°C° 0 mm 7 mps 750 mmHg 42%
    15:00 +12°C° 0 mm 7 mps 750 mmHg 41%
    16:00 +11°C° 0 mm 6 mps 751 mmHg 43%
    17:00 +10°C° 0 mm 5 mps 752 mmHg 45%
    18:00 +10°C° 0 mm 4 mps 752 mmHg 47%
    19:00 +10°C° 0 mm 4 mps 753 mmHg 48%
    20:00 +9°C° 0 mm 3 mps 753 mmHg 50%
    21:00 +9°C° 0 mm 3 mps 754 mmHg 51%
    22:00 +8°C° 0 mm 2 mps 755 mmHg 53%
    23:00 +8°C° 0 mm 2 mps 755 mmHg 55%

    25 January, Thursday

    Time Temperature Precipitation Wind Pressure Humidity
    00:00 +8°C° 0 mm 1 mps 755 mmHg 57%
    01:00 +8°C° 0 mm 1 mps 756 mmHg 59%
    02:00 +7°C° 0 mm 1 mps 756 mmHg 61%
    03:00 +7°C° 0 mm 1 mps 757 mmHg 63%
    04:00 +7°C° 0 mm 1 mps 757 mmHg 65%
    05:00 +6°C° 0 mm 1 mps 758 mmHg 67%
    06:00 +6°C° 0 mm 1 mps 758 mmHg 69%
    07:00 +7°C° 0 mm 1 mps 759 mmHg 68%
    08:00 +7°C° 0 mm 1 mps 759 mmHg 67%
    09:00 +8°C° 0 mm 1 mps 759 mmHg 67%
    10:00 +7°C° 0 mm 2 mps 759 mmHg 65%
    11:00 +8°C° 0 mm 2 mps 759 mmHg 64%
    12:00 +9°C° 0 mm 2 mps 759 mmHg 62%
    13:00 +9°C° 0 mm 2 mps 759 mmHg 62%
    14:00 +9°C° 0 mm 3 mps 759 mmHg 63%
    15:00 +9°C° 0 mm 3 mps 759 mmHg 63%
    16:00 +8°C° 0 mm 3 mps 759 mmHg 68%
    17:00 +8°C° 0 mm 3 mps 760 mmHg 72%
    18:00 +7°C° 0 mm 3 mps 760 mmHg 77%
    19:00 +7°C° 0.1 mm 3 mps 760 mmHg 78%
    20:00 +5°C° 0.1 mm 3 mps 761 mmHg 80%
    21:00 +5°C° 0.1 mm 3 mps 761 mmHg 81%
    22:00 +5°C° 0.1 mm 3 mps 761 mmHg 82%
    23:00 +5°C° 0.1 mm 3 mps 761 mmHg 82%
    Show more